Location: Newark
(43.0000°N, 1.6781°W)
Time: 06:18:13
(UTC+00:00)

Vanguard 1 - Pass Details

Date: 05 December 2021
Orbit: 652 x 3830 km, 34.2° (Epoch: 16 January)

Event Time Altitude Azimuth Distance (km) Brightness Sun altitude
Rises 20:27:31 0° 189° (S) 6,247 14.2 -42.2°
Reaches altitude 10° 20:32:37 10° 175° (S) 5,710 13.8 -43.1°
Enters shadow 20:35:56 16° 165° (SSE) 5,489 13.6 -43.7°
